ファン・ネス彗星

C/2004 S1 ( Van Ness )

English version
Home page
Updated on May 8, 2005

---------------------------------------------------------------------

・ プロフィール

発見日 2004年9月26日
発見光度 18.3等
発見者 M. E. Van Ness (Lowell Observatory-LONEOS)

・ 写真集

・ 軌道要素

T 2004 Dec. 8.9212 TT                                   MPC
q   0.681783             (2000.0)            P               Q
                   Peri.   92.8155      +0.0908421      -0.9498716
                   Node    19.2198      -0.7370118      -0.2661478
e   1.0            Incl.  114.6676      +0.6697472      -0.1640407
>From 75 observations 2004 Sept. 26-Oct. 20.

・ 星図

・ 光度変化

        m1 = 17.0 + 5 logΔ + 10.0 log r  [   ,-57]  (              〜2004年10月12日)
        m1 = 20.0 + 5 logΔ - 16.5 log r  [-57,  0]  (2004年10月12日〜2004年12月 8日)
        m1 = 24.5 + 5 logΔ + 10   log r  [  0,   ]  (2004年12月 8日〜              )

        ※ 灰色の曲線は、m1 = 17.0 + 5 logΔ + 10.0 log r の光度曲線です。

---------------------------------------------------------------------

軌道要素はM.P.E.C. 2004-U33に掲載されたものです。
星図は StellaNavigator Ver.2.0 for Windows (アストロアーツ 編著 / アスキー出版局刊) で作成したものです。
光度グラフはComet for Windowsで作成したものです。

---------------------------------------------------------------------

Copyright(C) Seiichi Yoshida (comet@aerith.net). All rights reserved.